This is the latest recevied weather packets stored in our database for station/object KM4NDN. If no packets are shown the sender has not sent any weather packets the latest 10 day(s).
| Time | Temp. | Humidity | Pressure | Rain* | Wind** | Luminosity | Snow |
|---|---|---|---|---|---|---|---|
| 1777411839 | 17.78° C | 64% | 1010.9 hPa | 0 mm | - | 483 W/m² | - |
| 1777411537 | 17.78° C | 63% | 1010.8 hPa | 0 mm | - | 212 W/m² | - |
| 1777411233 | 18.33° C | 64% | 1010.6 hPa | 0 mm | - | 146 W/m² | - |
| 1777410927 | 17.78° C | 64% | 1010.8 hPa | 0 mm | - | 535 W/m² | - |
| 1777410626 | 17.78° C | 64% | 1010.4 hPa | 0 mm | - | 225 W/m² | - |
| 1777410322 | 18.33° C | 62% | 1010.4 hPa | 0 mm | - | 518 W/m² | - |
| 1777410016 | 18.33° C | 65% | 1010.5 hPa | 0 mm | - | 185 W/m² | - |
| 1777409710 | 18.33° C | 63% | 1010.5 hPa | 0 mm | - | 561 W/m² | - |
| 1777409407 | 18.33° C | 63% | 1010.5 hPa | 0 mm | - | 578 W/m² | - |
| 1777409102 | 17.78° C | 63% | 1010.5 hPa | 0 mm | - | 573 W/m² | - |
| 1777408799 | 17.78° C | 64% | 1010.4 hPa | 0 mm | - | 434 W/m² | - |
| 1777408495 | 17.78° C | 65% | 1010.6 hPa | 0 mm | - | 717 W/m² | - |
| 1777408190 | 17.78° C | 66% | 1010.8 hPa | 0 mm | - | 408 W/m² | - |
| 1777407885 | 18.33° C | 64% | 1010.8 hPa | 0 mm | - | 210 W/m² | - |
| 1777407583 | 18.33° C | 66% | 1010.6 hPa | 0 mm | - | 454 W/m² | - |
| 1777407283 | 18.33° C | 65% | 1010.5 hPa | 0 mm | - | 284 W/m² | - |
| 1777406977 | 18.33° C | 63% | 1010.6 hPa | 0 mm | - | 225 W/m² | - |
| 1777406677 | 18.89° C | 61% | 1010.4 hPa | 0 mm | - | 281 W/m² | - |
| 1777406373 | 18.33° C | 64% | 1010.6 hPa | 0 mm | - | 285 W/m² | - |
| 1777406072 | 18.89° C | 62% | 1010.5 hPa | 0 mm | - | 254 W/m² | - |
| 1777405769 | 18.89° C | 64% | 1010.5 hPa | 0 mm | - | 771 W/m² | - |
| 1777405465 | 18.33° C | 63% | 1010.5 hPa | 0 mm | - | 854 W/m² | - |
| 1777405164 | 18.89° C | 67% | 1010.4 hPa | 0 mm | - | 332 W/m² | - |
| 1777404861 | 18.33° C | 63% | 1010.3 hPa | 0 mm | - | 815 W/m² | - |
| 1777404558 | 18.33° C | 66% | 1010.4 hPa | 0 mm | - | 335 W/m² | - |
* Rain latest hour (hover to see other rain measurements)
** Current wind speed in m/s (hover to see current wind gust speed)